Regional Weather Roundup
Issued by NWS

Home | Current Version | Previous Version | Graphics & Text | Print | Product List | Glossary On
Versions: 1 2 3 4 5 6 7 8 9 10 11 12 13 14 15 16 17 18 19 20 21 22 23 24 25 26 27 28 29 30 31 32 33 34 35 36 37 38 39 40 41 42 43 44 45 46 47 48 49 50
000
ASUS45 KBOU 300607
RWRCO

WEATHER ROUNDUP FOR COLORADO
NATIONAL WEATHER SERVICE DENVER/BOULDER CO
1200 AM MDT WED JUL 30 2014

NOTE: "FAIR" INDICATES FEW OR NO CLOUDS BELOW 12000 FEET WITH NO
SIGNIFICANT WEATHER AND/OR OBSTRUCTIONS TO VISIBILITY.

COZ001>005-013-030-031-300700-
...NORTHWEST COLORADO...

CITY           SKY/WX    TMP DP  RH WIND       PRES   REMARKS
CRAIG          CLOUDY    55  50  83 W3        30.28S
HAYDEN         CLOUDY    57  54  88 E8        30.29S
MEEKER         CLOUDY    55  53  93 SW5       30.30S
MOUNT WERNER   NOT AVBL
STEAMBOAT SPGS CLOUDY    56  53  91 E3        30.31F
WALDEN         CLOUDY    54  50  87 N7        30.37F
$$

COZ006>008-011-300700-
...WEST CENTRAL VALLEYS...

CITY           SKY/WX    TMP DP  RH WIND       PRES   REMARKS
GRAND JUNCTION CLOUDY    63  60  90 SE5       30.21S
MONTROSE       CLOUDY    63  57  81 SE6       30.29F
EAGLE          CLOUDY    61  55  82 CALM      30.33S
RIFLE          LGT RAIN  60  56  86 E5        30.27S
DELTA          CLOUDY    65  59  81 N5        30.25F
NUCLA          CLOUDY    63  57  82 CALM      30.30F
$$

COZ017>023-064>068-300700-
...SOUTHWEST COLORADO...

CITY           SKY/WX    TMP DP  RH WIND       PRES   REMARKS
DURANGO        PTCLDY    64  47  53 W8        30.28R
CORTEZ         CLEAR     62  55  77 E3        30.24F
PAGOSA SPRINGS PTCLDY    58  50  76 CALM      30.36S
TELLURIDE      MOCLDY    52  50  93 SE6       30.46F
WOLF CREEK PAS NOT AVBL
$$

COZ009-010-012-014-032>034-037-058>063-300700-
...CENTRAL COLORADO...

CITY           SKY/WX    TMP DP  RH WIND       PRES   REMARKS
ASPEN          LGT RAIN  54  52  93 SE5       30.40F
BUENA VISTA    CLOUDY    62  45  53 SW3       30.35S
COPPER MTN     HVY RAIN  46  41  81 W23       30.62S VSB 1/4
BERTHOUD PASS  HAZE      39  30  70 MISG      30.66S VSB<1/4
COTTONWOOD PAS CLOUDY    57  41  54 W15       30.48S
GUNNISON       CLOUDY    55  48  76 CALM      30.41F
KREMMLING      DRIZZLE   55  52  88 E3        30.36F
LEADVILLE      LGT RAIN  50  45  83 W5        30.48S
MONARCH PASS   LGT RAIN  41  41 100 W20       30.72F VSB 1/2
SALIDA         CLOUDY    62  57  84 S8        30.41R
SUNLIGHT       RAIN      46  46 100 CALM      30.57S
WILKERSON PASS MOCLDY    45  43  93 N10G20    30.59S FOG
$$

COZ069>075-300700-
...SAN LUIS VALLEY/SANGRE DE CRISTO MOUNTAINS...

CITY           SKY/WX    TMP DP  RH WIND       PRES   REMARKS
ALAMOSA        MOCLDY    55  53  93 S5        30.33F
LA VETA PASS   PTCLDY    46  45  93 CALM      30.49F
SAGUACHE       CLOUDY    57  50  77 NW10      30.38S
$$

COZ035-036-038>040-300700-
...NORTHERN COLORADO FRONT RANGE...

CITY           SKY/WX    TMP DP  RH WIND       PRES   REMARKS
DENVER INTL AP LGT RAIN  58  56  93 E13       30.26F FOG
DMNS CITY PARK   N/A     59  58  97 NE6       30.26S
AURORA         RAIN      58  58 100 NE13      30.28S FOG
FRONT RANGE AP LGT RAIN  59  59 100 E8        30.28F
ERIE MUNI ARPT RAIN      60  59  96 NE9       30.27R
BOULDER MUN AP HVY RAIN  59  59 100 N9        30.28S
CENTENNIAL     LGT RAIN  59  57  93 N7        30.27F
BROOMFIELD     RAIN      59  59 100 N10       30.29R
FORT COLLINS   CLOUDY    61  57  88 NE7       30.29S
LONGMONT       LGT RAIN  62  60  93 N7        30.29S
$$

COZ041-046-047-076>085-087-088-300700-
...PIKES PEAK/PALMER DIVIDE AND SOUTHERN FOOTHILLS...

CITY           SKY/WX    TMP DP  RH WIND       PRES   REMARKS
COLO. SPRINGS  LGT RAIN  60  58  92 NW3       30.28F FOG
A. F. ACADEMY  DRIZZLE   58  58  99 N5        30.29F
ELLICOTT       LGT RAIN  59  57  93 N5        30.26S
FALCON         CLOUDY    56  55  96 CALM      30.32S
FORT CARSON    CLOUDY    60  58  94 N5        30.25F
LIMON          CLOUDY    60  58  92 NE9       30.25S
MONUMENT HILL  CLOUDY    54  52  94 CALM      30.31F
TRINIDAD       MOCLDY    62  59  90 NW8       30.23S
$$

COZ042>045-048>051-090-091-300700-
...NORTHEAST COLORADO...

CITY           SKY/WX    TMP DP  RH WIND       PRES   REMARKS
GREELEY ARPT   NOT AVBL
AKRON          LGT RAIN  60  58  92 SE5       30.23F
BURLINGTON     LGT RAIN  62  60  93 NE6       30.19F
WRAY             N/A    N/A N/A N/A N8        30.21R
STERLING       LGT RAIN  64  64 100 N8        30.23F
HOLYOKE        RAIN      63  61  94 E8        30.23S
FORT MORGAN    CLOUDY    60  58  93 NE8       30.25R
$$

COZ086-089-092>099-300700-
...SOUTHEAST COLORADO...

CITY           SKY/WX    TMP DP  RH WIND       PRES   REMARKS
PUEBLO         LGT RAIN  63  62  97 N9        30.17F
LA JUNTA       LGT RAIN  65  63  93 E12       30.12F
LAMAR          RAIN      65  63  93 E12       30.09F FOG
SPRINGFIELD      N/A     67  64  90 SE13      30.10R
$$



USA.gov is the U.S. government's official web portal to all federal, state and local government web resources and services.